sat.trackr.live / text

‹ back to catalog

FIREFLY-1

NORAD 62701 · 2025-009CW

PAYLOAD ACTIVE UNKNOWN

§ Identity

Operator
Country
IND
Launch date
2025-01-14
Launch site
AFWTR
Launch vehicle
Mass (kg)
RCS (m²)

External: N2YO · Heavens-Above · Gunter

§ Orbital elements

Epoch: 2026-09-22T19:49:57.766656Z

Period
96.47 min
Inclination
97.6998°
Eccentricity
0.0004124
Mean motion
14.92757641 rev/d
Perigee alt
586.5 km
Apogee alt
592.2 km
Semi-major
6,967.5 km
B*
8.9476e-5
RAAN
341.8913°
Arg perigee
37.7264°
Mean anomaly
322.4244°
Rev number
9,188

§ Raw data

FIREFLY-11 62701U 25009CW  26265.82636304  .00000869  00000+0  89476-4 0  99952 62701  97.6998 341.8913 0004124  37.7264 322.4244 14.92757641 91888

JSON: /api/v1/satellites/62701 · /tle

For live sub-satellite position, see the globe view (requires WebGL).

§ Visibility from observer

Set your observer location to see the next 7 days of passes ≥ 10°. The values pass through the URL so the page stays shareable.

No JS? Fill the form by hand. The geolocation button needs JavaScript.

§ Radio — SatNOGS DB

ModeDescriptionDownlinkUplink
FM Mode S - Transmitter 2.243 GHz
FM Mode X - Transmitter 8.100 GHz

2 transmitters · refreshed weekly from db.satnogs.org